STARLINK-32015 (60111 NORAD) Tracking and Keplerian Element Data

This shows tracking and keplerian element data for the satellite.

Feedback or suggestion? Click here.




ElementValue
Catalog60111
NameSTARLINK-32015
Epoch Orbit1834
Epoch Day286.65829414
Epoch Year2024
RAAN259.7739
Inclination53.1597
Eccentricity7.02E-05
Argument of Perigee106.8666
Mean Anonmoly253.2411
Mean Motion15.30182117
Decay Rate0.00036069
L11 60111U 24117W 24286.65829414 .00036069 00000+0 12247-2 0 9996
L22 60111 53.1597 259.7739 0000702 106.8666 253.2411 15.30182117 18348



Live tracking and technical data element details for STARLINK-32015 (NORAD 60111). STARLINK-32015 can be tracked NOW for your location showing map with azimuth and elevation plus other details from your city location.







IsCatalogInMostPopularTable: catalog: 60111, numindb: 10
Update: records affected: 1



GetName: 60111 STARLINK-32015

Hit Count: updated at: Thu, 23 Jan 2025 14:45:55 GMT